This demonstration page uses our WeatherBlox Daily Observations layout. Learn more.

Left ArrowRight Arrow

Hourly Observations for May 18, 2021

Temp ( °F °C ) Dew Point ( °F °C ) Humidity (%) Winds ( mph kmh ) Pressure ( in mb ) Visibility ( mi km ) Precip ( " mm )
12:53 am 00:53 Clear 71 21.7 53 11.7 53 53 W 3 6 29.64 1004 10 16 0.00 0.00
1:53 am 01:53 Clear 68 20 55 12.8 63 63 E 3 6 29.65 1004 10 16 0.00 0.00
2:53 am 02:53 Clear 66 18.9 55 12.8 68 68 WSW 5 7 29.59 1002 10 16 0.00 0.00
3:53 am 03:53 Clear 63 17.2 50 10 63 63 NE 9 15 29.60 1002 10 16 0.00 0.00
4:53 am 04:53 Clear 63 17.2 50 10 63 63 Calm 29.61 1003 10 16 0.00 0.00
5:53 am 05:53 Clear 57 13.9 49 9.4 74 74 NNW 7 11 29.63 1003 10 16 0.00 0.00
6:53 am 06:53 Clear 58 14.4 52 11.1 81 81 ESE 5 7 29.66 1004 10 16 0.00 0.00
7:32 am 07:32 Mostly Cloudy 63 17.2 55 12.8 76 76 E 12 19 29.74 1007 10 16 0.00 0.00
7:44 am 07:44 Mostly Cloudy 63 17.2 55 12.8 76 76 E 12 19 29.75 1007 10 16 0.00 0.00
7:53 am 07:53 Cloudy 64 17.8 55 12.8 73 73 E 13 20 29.70 1006 10 16 0.00 0.00
8:30 am 08:30 Partly Cloudy 65 18.3 52 11.1 63 63 SE 17 28 29.76 1008 10 16 0.00 0.00
8:53 am 08:53 Sunny 65 18.3 52 11.1 63 63 ESE 18 30 29.72 1007 10 16 0.00 0.00
9:53 am 09:53 Sunny 70 21.1 54 12.2 57 57 SSE 18 30 29.72 1007 10 16 0.00 0.00
10:53 am 10:53 Sunny 72 22.2 55 12.8 55 55 SSE 16 26 29.73 1007 10 16 0.00 0.00
11:53 am 11:53 Sunny 78 25.6 52 11.1 40 40 SSE 12 19 29.72 1006 10 16 0.00 0.00
12:53 pm 12:53 Sunny 79 26.1 45 7.2 30 30 undefined N/A 29.70 1006 10 16 0.00 0.00
1:53 pm 13:53 Sunny 84 28.9 33 0.6 16 16 undefined N/A 29.67 1005 10 16 0.00 0.00
2:53 pm 14:53 Sunny 86 30 31 -0.6 14 14 S 13 20 29.65 1004 10 16 0.00 0.00
3:53 pm 15:53 Sunny 86 30 30 -1.1 13 13 SW 13 20 29.61 1003 10 16 0.00 0.00
4:53 pm 16:53 Sunny 89 31.7 25 -3.9 10 10 WSW 13 20 29.58 1002 10 16 0.00 0.00
5:53 pm 17:53 Sunny 89 31.7 24 -4.4 9 9 WSW 18 30 29.58 1002 10 16 0.00 0.00
6:53 pm 18:53 Sunny 88 31.1 25 -3.9 10 10 W 15 24 29.59 1002 10 16 0.00 0.00
7:53 pm 19:53 Sunny 86 30 26 -3.3 11 11 W 14 22 29.60 1002 10 16 0.00 0.00
8:53 pm 20:53 Clear 81 27.2 27 -2.8 14 14 W 7 11 29.62 1003 10 16 0.00 0.00
9:53 pm 21:53 Clear 76 24.4 28 -2.2 17 17 NW 5 7 29.64 1004 10 16 0.00 0.00
10:53 pm 22:53 Clear 71 21.7 29 -1.7 21 21 N 14 22 29.66 1005 10 16 0.00 0.00
11:53 pm 23:53 Clear 69 20.6 41 5 36 36 NE 10 17 29.65 1004 10 16 0.00 0.00

Powered by AerisWeather